This is the latest recevied weather packets stored in our database for station/object F4LNO-10. If no packets are shown the sender has not sent any weather packets the latest 10 day(s).
| Time | Temp. | Humidity | Pressure | Rain* | Wind** | Luminosity | Snow |
|---|---|---|---|---|---|---|---|
| 1778006181 | 19.44° C | 80% | 1012.1 hPa | - | - | - | - |
| 1778005281 | 21.11° C | 74% | 1012.2 hPa | - | - | - | - |
| 1778004379 | 20° C | 80% | 1012.1 hPa | - | - | - | - |
| 1778003479 | 20° C | 79% | 1012.1 hPa | - | - | - | - |
| 1778002578 | 19.44° C | 80% | 1012.1 hPa | - | - | - | - |
| 1778001677 | 19.44° C | 80% | 1012.2 hPa | - | - | - | - |
| 1778000776 | 19.44° C | 80% | 1012.3 hPa | - | - | - | - |
| 1777999875 | 19.44° C | 80% | 1012.3 hPa | - | - | - | - |
| 1777998974 | 21.11° C | 75% | 1012.3 hPa | - | - | - | - |
| 1777998074 | 19.44° C | 82% | 1012.3 hPa | - | - | - | - |
| 1777997173 | 19.44° C | 82% | 1012.2 hPa | - | - | - | - |
| 1777996272 | 19.44° C | 81% | 1012.2 hPa | - | - | - | - |
| 1777995371 | 19.44° C | 81% | 1012.4 hPa | - | - | - | - |
| 1777994470 | 19.44° C | 81% | 1012.3 hPa | - | - | - | - |
| 1777993570 | 19.44° C | 81% | 1012.3 hPa | - | - | - | - |
| 1777992669 | 19.44° C | 82% | 1012.1 hPa | - | - | - | - |
| 1777991768 | 19.44° C | 84% | 1012.2 hPa | - | - | - | - |
| 1777990867 | 19.44° C | 84% | 1012.5 hPa | - | - | - | - |
| 1777989966 | 19.44° C | 85% | 1012.5 hPa | - | - | - | - |
| 1777989065 | 19.44° C | 84% | 1012.6 hPa | - | - | - | - |
| 1777988184 | 19.44° C | 85% | 1012.8 hPa | - | - | - | - |
| 1777987283 | 19.44° C | 84% | 1012.7 hPa | - | - | - | - |
| 1777986382 | 19.44° C | 85% | 1012.9 hPa | - | - | - | - |
| 1777985482 | 19.44° C | 82% | 1012.8 hPa | - | - | - | - |
| 1777984581 | 19.44° C | 82% | 1013.1 hPa | - | - | - | - |
* Rain since midnight (hover to see other rain measurements)
** Current wind speed in m/s (hover to see current wind gust speed)